Location: Unspecified
(41.5000°N, 0.0000°E)
Time: 18:00:05
(UTC+00:00)

Vanguard 3 - Pass Details

Date: 20 June 2019
Orbit: 508 x 3263 km, 33.3° (Epoch: 23 August)

Event Time Altitude Azimuth Distance (km) Brightness Sun altitude
Rises 10:03:32 0° 213° (SSW) 6,640 11.8 59.5°
Reaches altitude 10° 10:09:37 10° 202° (SSW) 5,188 11.4 60.5°
Maximum altitude 10:19:39 24° 157° (SSE) 3,266 11.0 62.1°
Drops below altitude 10° 10:26:34 10° 109° (ESE) 3,464 10.9 63.2°
Sets 10:29:37 0° 94° (E) 4,071 11.1 63.7°
